Sturgis, MI

10:03 AM EDT on August 29, 2016 (GMT -0400)
Kirsch Municipal

Weather History for KIRS - March, 2013

Change the Weather History Date:

Sunday, March 24, 2013

  Actual Average (KHAI) Record (KHAI)
Temperature  
Mean Temperature 30 °F -  
Max Temperature 35 °F 48 °F 73 °F (1988)
Min Temperature 24 °F 26 °F 6 °F (1965)
Degree Days  
Heating Degree Days 36    
Moisture  
Dew Point 22 °F    
Average Humidity 72    
Maximum Humidity 86    
Minimum Humidity 56    
Precipitation  
Precipitation 0.00 in - - ()
Sea Level Pressure  
Sea Level Pressure 29.79 in    
Wind  
Wind Speed 11 mph (ENE)    
Max Wind Speed 25 mph    
Max Gust Speed 31 mph    
Visibility 10 miles    
Events      
Averages and records for this station are not official NWS values.
T = Trace of Precipitation, MM = Missing Value Source: NWS Daily Summary

Daily Weather History Graph

Daily Weather History Graph

Search for Another Location

Airport or City:

Trip Planner

Search our weather history database for the weather conditions in past years. The results will help you decide how hot, cold, wet, or windy it might be!

Date:

Astronomy

Mar. 24, 2013 Rise Set
Actual Time 7:37 AM EDT 7:58 PM EDT
Civil Twilight 7:09 AM EDT 8:26 PM EDT
Nautical Twilight 6:37 AM EDT 8:59 PM EDT
Astronomical Twilight 6:03 AM EDT 9:33 PM EDT
Moon 5:24 PM EDT (3/24) 5:49 AM EDT (3/24)
Length of Visible Light 13h 16m
Length of Day
12h 20m
Waxing Gibbous, 91% of the Moon is Illuminated
Mar 24
Waxing Gibbous
Mar 27
Full
Apr 3
Last Quarter
Apr 10
New
Apr 18
First Quarter

Hourly Weather History & Observations

Time (EDT) Temp. Windchill Dew Point Humidity Pressure Visibility Wind Dir Wind Speed Gust Speed Precip Events Conditions
12:15 AM 26.6 °F 17.5 °F 21.2 °F 80% 29.99 in 10.0 mi NE 9.2 mph - N/A   Clear
12:35 AM 26.6 °F 18.2 °F 21.2 °F 80% 29.99 in 10.0 mi NE 8.1 mph - N/A   Clear
12:54 AM 26.6 °F 17.5 °F 21.2 °F 80% 29.98 in 10.0 mi NE 9.2 mph - N/A   Clear
1:15 AM 26.6 °F 18.2 °F 21.2 °F 80% 29.97 in 10.0 mi NE 8.1 mph - N/A   Clear
1:35 AM 26.6 °F 19.1 °F 21.2 °F 80% 29.98 in 10.0 mi ENE 6.9 mph - N/A   Clear
1:54 AM 26.6 °F 20.0 °F 21.2 °F 80% 29.99 in 10.0 mi NE 5.8 mph - N/A   Clear
2:15 AM 24.8 °F 19.1 °F 21.2 °F 86% 29.98 in 10.0 mi NE 4.6 mph - N/A   Clear
2:35 AM 24.8 °F 19.1 °F 21.2 °F 86% 29.98 in 10.0 mi NE 4.6 mph - N/A   Clear
2:54 AM 24.8 °F 16.9 °F 21.2 °F 86% 29.96 in 10.0 mi NE 6.9 mph - N/A   Clear
3:34 AM 24.8 °F 20.5 °F 21.2 °F 86% 29.98 in 10.0 mi ENE 3.5 mph - N/A   Clear
3:55 AM 26.6 °F 21.2 °F 21.2 °F 80% 29.98 in 10.0 mi ENE 4.6 mph - N/A   Clear
4:15 AM 26.6 °F 20.0 °F 23.0 °F 86% 29.97 in 10.0 mi ENE 5.8 mph - N/A   Clear
4:35 AM 26.6 °F 22.6 °F 21.2 °F 80% 29.96 in 10.0 mi East 3.5 mph - N/A   Clear
4:55 AM 26.6 °F 20.0 °F 21.2 °F 80% 29.96 in 10.0 mi ENE 5.8 mph - N/A   Clear
5:15 AM 26.6 °F 20.0 °F 23.0 °F 86% 29.96 in 10.0 mi ENE 5.8 mph - N/A   Clear
5:35 AM 26.6 °F 19.1 °F 23.0 °F 86% 29.95 in 10.0 mi ENE 6.9 mph - N/A   Clear
5:54 AM 26.6 °F 18.2 °F 23.0 °F 86% 29.94 in 10.0 mi ENE 8.1 mph - N/A   Clear
6:15 AM 26.6 °F 19.1 °F 23.0 °F 86% 29.94 in 10.0 mi ENE 6.9 mph - N/A   Clear
6:35 AM 26.6 °F 18.2 °F 23.0 °F 86% 29.93 in 10.0 mi ENE 8.1 mph - N/A   Clear
6:55 AM 26.6 °F 19.1 °F 23.0 °F 86% 29.92 in 10.0 mi ENE 6.9 mph - N/A   Clear
7:15 AM 26.6 °F 19.1 °F 23.0 °F 86% 29.91 in 10.0 mi ENE 6.9 mph - N/A   Clear
7:35 AM 28.4 °F 19.1 °F 24.8 °F 86% 29.90 in 10.0 mi ENE 10.4 mph - N/A   Clear
7:55 AM 28.4 °F 19.7 °F 24.8 °F 86% 29.89 in 10.0 mi ENE 9.2 mph - N/A   Clear
8:14 AM 28.4 °F 19.7 °F 23.0 °F 80% 29.88 in 10.0 mi ENE 9.2 mph - N/A   Scattered Clouds
8:35 AM 28.4 °F 19.7 °F 23.0 °F 80% 29.89 in 10.0 mi East 9.2 mph - N/A   Scattered Clouds
8:55 AM 28.4 °F 19.1 °F 23.0 °F 80% 29.89 in 10.0 mi East 10.4 mph - N/A   Scattered Clouds
9:14 AM 28.4 °F 22.2 °F 24.8 °F 86% 29.89 in 10.0 mi East 5.8 mph - N/A   Clear
9:35 AM 28.4 °F 21.2 °F 24.8 °F 86% 29.89 in 10.0 mi ENE 6.9 mph - N/A   Scattered Clouds
9:55 AM 28.4 °F 20.4 °F 24.8 °F 86% 29.87 in 10.0 mi ENE 8.1 mph - N/A   Scattered Clouds
10:14 AM 28.4 °F 18.5 °F 24.8 °F 86% 29.86 in 10.0 mi ENE 11.5 mph - N/A   Scattered Clouds
10:35 AM 30.2 °F 19.8 °F 24.8 °F 80% 29.84 in 10.0 mi ENE 13.8 mph 23.0 mph N/A   Scattered Clouds
10:54 AM 30.2 °F 20.2 °F 24.8 °F 80% 29.84 in 10.0 mi ENE 12.7 mph - N/A   Scattered Clouds
11:15 AM 30.2 °F 19.8 °F 24.8 °F 80% 29.84 in 10.0 mi East 13.8 mph - N/A   Scattered Clouds
11:35 AM 30.2 °F 18.1 °F 24.8 °F 80% 29.82 in 10.0 mi ENE 18.4 mph - N/A   Scattered Clouds
11:54 AM 32.0 °F 21.6 °F 24.8 °F 75% 29.81 in 10.0 mi ENE 15.0 mph 21.9 mph N/A   Clear
12:15 PM 33.8 °F 24.3 °F 24.8 °F 70% 29.78 in 10.0 mi ENE 13.8 mph 24.2 mph N/A   Clear
12:34 PM 33.8 °F 23.9 °F 23.0 °F 65% 29.77 in 10.0 mi East 15.0 mph 26.5 mph N/A   Clear
12:55 PM 33.8 °F 23.2 °F 21.2 °F 60% 29.77 in 10.0 mi East 17.3 mph - N/A   Scattered Clouds
1:15 PM 33.8 °F 23.5 °F 21.2 °F 60% 29.77 in 10.0 mi East 16.1 mph 26.5 mph N/A   Mostly Cloudy
1:34 PM 33.8 °F 23.9 °F 21.2 °F 60% 29.76 in 10.0 mi East 15.0 mph 21.9 mph N/A   Scattered Clouds
1:55 PM 33.8 °F 23.9 °F 21.2 °F 60% 29.76 in 10.0 mi East 15.0 mph - N/A   Clear
2:15 PM 35.6 °F 25.5 °F 21.2 °F 56% 29.75 in 10.0 mi East 17.3 mph 23.0 mph N/A   Clear
2:34 PM 35.6 °F 25.5 °F 21.2 °F 56% 29.74 in 10.0 mi East 17.3 mph 20.7 mph N/A   Clear
2:55 PM 35.6 °F 25.9 °F 21.2 °F 56% 29.71 in 10.0 mi East 16.1 mph 20.7 mph N/A   Clear
3:15 PM 35.6 °F 25.5 °F 21.2 °F 56% 29.70 in 10.0 mi East 17.3 mph 25.3 mph N/A   Scattered Clouds
3:34 PM 35.6 °F 24.8 °F 21.2 °F 56% 29.68 in 10.0 mi East 19.6 mph 27.6 mph N/A   Scattered Clouds
3:55 PM 35.6 °F 25.2 °F 21.2 °F 56% 29.66 in 10.0 mi East 18.4 mph 25.3 mph N/A   Mostly Cloudy
4:15 PM 35.6 °F 25.9 °F 23.0 °F 60% 29.65 in 10.0 mi East 16.1 mph - N/A   Mostly Cloudy
4:34 PM 35.6 °F 24.2 °F 23.0 °F 60% 29.64 in 10.0 mi ENE 21.9 mph 28.8 mph N/A   Mostly Cloudy
4:55 PM 35.6 °F 24.8 °F 23.0 °F 60% 29.63 in 10.0 mi ENE 19.6 mph 28.8 mph N/A   Overcast
5:15 PM 35.6 °F 26.2 °F 23.0 °F 60% 29.63 in 10.0 mi ENE 15.0 mph 27.6 mph N/A   Overcast
5:34 PM 35.6 °F 24.5 °F 23.0 °F 60% 29.61 in 10.0 mi ENE 20.7 mph 28.8 mph N/A   Overcast
5:55 PM 35.6 °F 26.6 °F 23.0 °F 60% 29.60 in 10.0 mi ENE 13.8 mph 31.1 mph N/A   Overcast
6:14 PM 35.6 °F 23.4 °F 23.0 °F 60% 29.59 in 10.0 mi ENE 25.3 mph 31.1 mph N/A   Overcast
6:35 PM 33.8 °F 22.8 °F 23.0 °F 65% 29.61 in 10.0 mi ENE 18.4 mph 24.2 mph N/A   Overcast
6:54 PM 33.8 °F 23.2 °F 24.8 °F 70% 29.60 in 10.0 mi ENE 17.3 mph 21.9 mph N/A   Overcast
7:15 PM 33.8 °F 23.9 °F 24.8 °F 70% 29.60 in 10.0 mi NE 15.0 mph 25.3 mph N/A   Overcast
7:35 PM 33.8 °F 23.9 °F 24.8 °F 70% 29.60 in 10.0 mi ENE 15.0 mph 21.9 mph N/A   Overcast
7:54 PM 33.8 °F 24.3 °F 24.8 °F 70% 29.59 in 10.0 mi NE 13.8 mph 23.0 mph N/A   Overcast
8:15 PM 33.8 °F 24.8 °F 23.0 °F 65% 29.59 in 10.0 mi NE 12.7 mph 21.9 mph N/A   Overcast
8:34 PM 33.8 °F 23.5 °F 23.0 °F 65% 29.59 in 10.0 mi NE 16.1 mph 20.7 mph N/A   Overcast
8:55 PM 33.8 °F 23.9 °F 21.2 °F 60% 29.60 in 10.0 mi NE 15.0 mph 26.5 mph N/A   Overcast
9:15 PM 33.8 °F 23.2 °F 21.2 °F 60% 29.60 in 10.0 mi NE 17.3 mph 25.3 mph N/A   Overcast
9:34 PM 32.0 °F 21.2 °F 21.2 °F 64% 29.61 in 10.0 mi NE 16.1 mph 26.5 mph N/A   Overcast
9:55 PM 32.0 °F 20.8 °F 19.4 °F 60% 29.62 in 10.0 mi NE 17.3 mph 26.5 mph N/A   Overcast
10:15 PM 30.2 °F 19.3 °F 19.4 °F 64% 29.62 in 10.0 mi ENE 15.0 mph 21.9 mph N/A   Overcast
10:34 PM 30.2 °F 18.5 °F 19.4 °F 64% 29.62 in 10.0 mi NE 17.3 mph - N/A   Overcast
10:55 PM 30.2 °F 19.3 °F 19.4 °F 64% 29.62 in 10.0 mi NE 15.0 mph 18.4 mph N/A   Overcast
11:14 PM 30.2 °F 21.3 °F 19.4 °F 64% 29.62 in 10.0 mi NE 10.4 mph 19.6 mph N/A   Overcast
11:35 PM 30.2 °F 18.9 °F 19.4 °F 64% 29.61 in 10.0 mi NE 16.1 mph 20.7 mph N/A   Overcast
11:54 PM 30.2 °F 18.9 °F 21.2 °F 69% 29.61 in 10.0 mi NE 16.1 mph 19.6 mph N/A   Overcast